ATLAS 5 CENTAUR DEB, 43998

Orbit data source: Space-Track

ATLAS 5 CENTAUR DEB, 43998 is space debris in HEO originally from a launch on Wed, 17 Sep 2014 UTC launched from the Air Force Eastern Test Range (AFETR). Debris objects in space refer to the collection of defunct objects orbiting the Earth. Examples of debris include non-operational satellites, rocket bodies, and fragments generated from explosions, collisions, or faulty payload assembly.

Loading next visibility...
Identifier
43998, 2014-055BD
Orbit
HEO
Country
Flag of USUS
Related business
Flag of USUnited Launch Alliance/Lockheed Martin (US)
Manufacturer
Unknown
Mission
Spacecraft
Bus & Motor
Unknown
Mass
Unknown
Launch date (UTC)
2014-09-17 (12 years ago)
Launch vehicle
Unknown
Launch site
Air Force Eastern Test Range (AFETR)
Object type
Payload
Rocket body
Debris
Shape & HBR
Unknown shape, 1.1 m
Radar Cross Section
Medium (>0.1 m² and <1 m²)

Expand to show TLE details & history
Last TLE update: 1 week ago

TLE from 1 week ago
0 ATLAS 5 CENTAUR DEB
1 43998U 14055BD  26230.83954614 -.00000180  00000-0  00000-0 0  9991
2 43998  20.5046 125.4771 5051279 199.9033 129.8014  1.83525001 52470
Epoch: 2026-08-18T20:08Z
TLE epoch observation values (Epoch: 2026-08-18T20:08:56.786Z)
Latitude
0.00006°
Longitude
-143.92274°
Altitude
33,619.581 km
Speed
2.406 km/s
True Right ascension
08h 22m 03s
True Declination
0° 00' 00"
Sunlit
Object was in daylight at epoch
Visualization orbit readout
Latitude
Unknown
Longitude
Unknown
Altitude
Unknown
Speed
Unknown
Apparent Right ascension
Unknown
Apparent Declination
Unknown
Sunlit
N/A
Visualization observer readout
Local Sidereal Time
00:15:53
Azimuth
Unknown
Elevation
Unknown
Doppler factor
Unknown
Orbital elements
Apogee altitude
36,039.122 km
Perigee altitude
7,568.264 km
Semi-major axis
28,181.83 km
Eccentricity
0.50513
Inclination
20.5046°
RAAN
125.4771°
Arg. of periapsis
199.9033°
True anomaly
160.10713°
Mean anomaly
129.8014°
Eccentric anomaly
145.9897°
Mean motion
0.45876 °/min
Orbital period
784.72 mins
BSTAR
0
Loading maneuver chart data...
Computing Atmospheric mass density...

Documentation

Showing up to 5 results
|